Location: Sobotiste
(48.7170°N, 17.4000°E)
Time: 00:18:15
(UTC+01:00)

ITUPSAT 1 - Visible Passes

Search period start: 15 March 2026 00:00
Search period end: 25 March 2026 00:00
Orbit: 687 x 698 km, 98.4° (Epoch: 13 March)

Date Brightness Start Highest point End Pass type
(mag) Time Alt. Az. Time Alt. Az. Time Alt. Az.
17 Mar ? 00:12:57 10° N 00:12:58 10° N 00:12:58 10° N visible
18 Mar ? 23:54:26 10° N 23:54:36 11° N 23:54:36 11° N visible
20 Mar ? 00:34:26 10° N 00:34:44 11° N 00:34:44 11° N visible
20 Mar ? 23:35:57 10° NNE 23:36:12 11° NNE 23:36:12 11° NNE visible
22 Mar ? 00:15:46 10° N 00:16:21 13° N 00:16:21 13° N visible
22 Mar ? 23:17:34 10° NNE 23:17:48 11° NNE 23:17:48 11° NNE visible
23 Mar ? 00:56:05 10° NNW 00:56:29 12° NNW 00:56:29 12° NNW visible
23 Mar ? 23:57:11 10° N 23:57:57 14° N 23:57:57 14° N visible
24 Mar ? 22:59:17 10° NNE 22:59:24 11° NNE 22:59:24 11° NNE visible
